Homestead, FL

12:47 PM EST on February 14, 2016 (GMT -0500)
Dade County-Homestead Regional

Weather History for KHST - March, 2013

Change the Weather History Date:

Thursday, March 28, 2013

  Actual Average (KMIA) Record (KMIA)
Temperature  
Mean Temperature 61 °F 74 °F  
Max Temperature 72 °F 81 °F 89 °F (1946)
Min Temperature 50 °F 66 °F 52 °F (1955)
Degree Days  
Heating Degree Days 4 0  
Month to date heating degree days 8  
Since 1 July heating degree days 124  
Cooling Degree Days 0 9  
Month to date cooling degree days 220  
Year to date cooling degree days 542  
Growing Degree Days 11 (Base 50)    
Moisture  
Dew Point 46 °F    
Average Humidity 57    
Maximum Humidity 85    
Minimum Humidity 37    
Precipitation  
Precipitation 0.00 in 0.11 in 2.52 in (1940)
Month to date precipitation 2.66  
Year to date precipitation 6.53  
Snow  
Snow 0.00 in - - ()
Month to date snowfall  
Since 1 July snowfall  
Snow Depth -    
Sea Level Pressure  
Sea Level Pressure 30.23 in    
Wind  
Wind Speed 9 mph (NNE)    
Max Wind Speed 15 mph    
Max Gust Speed -    
Visibility 10 miles    
Events      
T = Trace of Precipitation, MM = Missing Value Source: NWS Daily Summary

Daily Weather History Graph

Daily Weather History Graph

Search for Another Location

Airport or City:

Trip Planner

Search our weather history database for the weather conditions in past years. The results will help you decide how hot, cold, wet, or windy it might be!

Date:

Astronomy

Mar. 28, 2013 Rise Set
Actual Time 7:16 AM EDT 7:36 PM EDT
Civil Twilight 6:53 AM EDT 7:59 PM EDT
Nautical Twilight 6:27 AM EDT 8:26 PM EDT
Astronomical Twilight 5:59 AM EDT 8:53 PM EDT
Moon 9:11 PM EDT (3/28) 7:55 AM EDT (3/28)
Length of Visible Light 13h 05m
Length of Day
12h 19m
Full, 98% of the Moon is Illuminated
Mar 28
Full
Apr 3
Last Quarter
Apr 10
New
Apr 18
First Quarter
Apr 25
Full

Hourly Weather History & Observations

Time (EDT) Temp. Dew Point Humidity Pressure Visibility Wind Dir Wind Speed Gust Speed Precip Events Conditions
12:58 AM 55.4 °F 39.4 °F 55% 30.23 in 10.0 mi NNW 8.1 mph - N/A   Clear
1:58 AM 54.7 °F 40.6 °F 59% 30.22 in 10.0 mi NNW 8.1 mph - N/A   Clear
2:58 AM 54.7 °F 42.4 °F 63% 30.21 in 10.0 mi NNW 9.2 mph - N/A   Clear
3:58 AM 52.9 °F 44.1 °F 72% 30.20 in 10.0 mi NNW 6.9 mph - N/A   Clear
4:58 AM 52.0 °F 45.5 °F 79% 30.20 in 10.0 mi NNW 9.2 mph - N/A   Clear
5:58 AM 51.3 °F 46.2 °F 83% 30.20 in 10.0 mi NNW 9.2 mph - N/A   Clear
6:58 AM 50.5 °F 46.2 °F 85% 30.21 in 10.0 mi NNW 10.4 mph - N/A   Clear
7:58 AM 51.1 °F 45.3 °F 81% 30.23 in 10.0 mi NNW 10.4 mph - N/A   Clear
8:58 AM 56.8 °F 43.5 °F 61% 30.24 in 10.0 mi North 10.4 mph - N/A   Clear
9:58 AM 62.8 °F 42.6 °F 48% 30.27 in 10.0 mi North 10.4 mph - N/A   Clear
10:58 AM 67.3 °F 43.0 °F 41% 30.28 in 10.0 mi North 9.2 mph - N/A   Clear
11:58 AM 69.3 °F 44.1 °F 40% 30.27 in 10.0 mi NNW 8.1 mph - N/A   Clear
12:58 PM 71.1 °F 43.2 °F 37% 30.26 in 10.0 mi North 10.4 mph - N/A   Clear
1:58 PM 71.6 °F 47.1 °F 42% 30.23 in 10.0 mi ENE 8.1 mph - N/A   Clear
2:58 PM 72.1 °F 48.9 °F 44% 30.21 in 10.0 mi ENE 11.5 mph - N/A   Clear
3:58 PM 72.0 °F 49.6 °F 45% 30.19 in 10.0 mi East 12.7 mph - N/A   Clear
4:58 PM 71.4 °F 48.6 °F 44% 30.18 in 10.0 mi ENE 15.0 mph - N/A   Clear
5:58 PM 70.3 °F 48.0 °F 45% 30.19 in 10.0 mi ENE 12.7 mph - N/A   Clear
6:58 PM 68.7 °F 47.8 °F 47% 30.20 in 10.0 mi East 9.2 mph - N/A   Clear
7:36 PM 66.2 °F 48.2 °F 52% 30.21 in 10.0 mi ENE 6.9 mph - N/A   Light Drizzle
7:45 PM 66.2 °F 48.2 °F 52% 30.21 in 10.0 mi ENE 5.8 mph - N/A   Clear
7:58 PM 64.9 °F 48.9 °F 56% 30.22 in 10.0 mi NE 4.6 mph - 0.00 in   Clear
8:58 PM 62.6 °F 47.7 °F 58% 30.23 in 10.0 mi NE 4.6 mph - N/A   Clear
9:58 PM 62.1 °F 46.0 °F 56% 30.25 in 10.0 mi NNE 4.6 mph - N/A   Clear
10:58 PM 60.1 °F 50.0 °F 69% 30.26 in 10.0 mi NNE 4.6 mph - N/A   Clear
11:58 PM 59.7 °F 45.9 °F 60% 30.26 in 10.0 mi NNW 2.3 mph - N/A   Clear